TimeMST,TemperatureF,Dew PointF,Humidity,Sea Level PressureIn,VisibilityMPH,Wind Direction,Wind SpeedMPH,Gust SpeedMPH,PrecipitationIn,Events,Conditions,WindDirDegrees,DateUTC
12:07 AM,8.1,5.0,87,29.66,0.8,Calm,Calm,-,0.00,Snow,Light Snow,0,2014-02-04 07:07:00
12:11 AM,8.1,5.0,87,29.66,1.0,Calm,Calm,-,0.00,Snow,Light Snow,0,2014-02-04 07:11:00
12:53 AM,8.1,5.0,87,29.67,1.0,Calm,Calm,-,0.00,Snow,Light Snow,0,2014-02-04 07:53:00
1:00 AM,8.1,5.0,87,29.65,1.2,SW,4.6,-,0.01,Snow,Light Snow,220,2014-02-04 08:00:00
1:11 AM,8.1,5.0,87,29.65,0.8,South,5.8,-,0.01,Snow,Light Snow,190,2014-02-04 08:11:00
1:40 AM,8.1,5.0,87,29.65,1.0,South,4.6,-,0.01,Snow,Light Snow,190,2014-02-04 08:40:00
1:49 AM,8.6,5.0,85,29.65,0.8,SSW,6.9,-,0.01,Snow,Light Snow,200,2014-02-04 08:49:00
1:53 AM,8.1,5.0,87,29.66,0.8,SSW,5.8,-,0.01,Snow,Light Snow,200,2014-02-04 08:53:00
2:35 AM,8.1,5.0,87,29.65,0.8,Calm,Calm,-,0.01,Snow,Light Snow,0,2014-02-04 09:35:00
2:53 AM,8.1,3.9,83,29.65,0.8,Calm,Calm,-,0.01,Snow,Light Snow,0,2014-02-04 09:53:00
3:02 AM,8.1,3.9,83,29.64,1.0,Calm,Calm,-,0.00,Snow,Light Snow,0,2014-02-04 10:02:00
3:12 AM,7.0,3.9,87,29.64,1.2,Calm,Calm,-,0.01,Snow,Light Snow,0,2014-02-04 10:12:00
3:53 AM,7.0,3.9,87,29.65,2.0,NNE,4.6,-,0.01,Snow,Light Snow,30,2014-02-04 10:53:00
4:02 AM,7.0,3.9,87,29.64,1.5,North,3.5,-,0.00,Snow,Light Snow,360,2014-02-04 11:02:00
4:09 AM,7.0,3.9,87,29.63,2.0,Calm,Calm,-,0.00,Snow,Light Snow,0,2014-02-04 11:09:00
4:20 AM,7.0,3.0,84,29.63,5.0,Calm,Calm,-,0.00,,Overcast,0,2014-02-04 11:20:00
4:44 AM,6.1,1.9,83,29.64,1.8,Calm,Calm,-,0.00,Snow,Light Snow,0,2014-02-04 11:44:00
4:53 AM,6.1,1.9,83,29.67,1.5,Calm,Calm,-,0.00,Snow,Light Snow,0,2014-02-04 11:53:00
5:08 AM,6.1,1.9,83,29.64,1.8,Calm,Calm,-,0.00,Snow,Light Snow,0,2014-02-04 12:08:00
5:35 AM,6.1,1.9,83,29.64,2.5,ENE,3.5,-,0.00,Snow,Light Snow,70,2014-02-04 12:35:00
5:53 AM,5.0,1.0,84,29.70,4.0,ENE,3.5,-,0.00,,Mist,70,2014-02-04 12:53:00
6:53 AM,3.9,-0.0,84,29.72,10.0,Calm,Calm,-,N/A,,Overcast,0,2014-02-04 13:53:00
7:35 AM,3.0,-0.0,87,29.64,2.0,Calm,Calm,-,N/A,,Overcast,0,2014-02-04 14:35:00
7:53 AM,3.0,-0.0,87,29.75,1.8,Calm,Calm,-,N/A,,Overcast,0,2014-02-04 14:53:00
8:01 AM,5.0,1.0,84,29.64,2.5,Calm,Calm,-,N/A,,Overcast,0,2014-02-04 15:01:00
8:10 AM,5.0,1.9,87,29.64,4.0,Calm,Calm,-,N/A,,Overcast,0,2014-02-04 15:10:00
8:28 AM,6.1,1.9,83,29.65,9.0,Calm,Calm,-,N/A,,Mostly Cloudy,0,2014-02-04 15:28:00
8:53 AM,6.1,3.0,87,29.75,10.0,Calm,Calm,-,N/A,,Mostly Cloudy,0,2014-02-04 15:53:00
9:09 AM,6.1,3.9,91,29.65,9.0,South,3.5,-,N/A,,Overcast,190,2014-02-04 16:09:00
9:30 AM,6.1,3.0,87,29.65,6.0,South,5.8,-,N/A,,Overcast,190,2014-02-04 16:30:00
9:47 AM,6.8,3.2,85,29.65,10.0,South,8.1,-,N/A,,Mostly Cloudy,180,2014-02-04 16:47:00
9:53 AM,6.1,3.0,87,29.74,10.0,South,6.9,-,N/A,,Mostly Cloudy,190,2014-02-04 16:53:00
10:53 AM,8.1,3.9,83,29.72,10.0,South,10.4,-,N/A,,Overcast,180,2014-02-04 17:53:00
11:53 AM,8.1,3.9,83,29.70,10.0,South,11.5,-,N/A,,Overcast,170,2014-02-04 18:53:00
12:03 PM,9.0,3.9,80,29.61,1.8,South,13.8,-,0.00,Snow,Light Snow,180,2014-02-04 19:03:00
12:15 PM,9.0,5.0,84,29.62,0.8,South,9.2,-,0.01,Snow,Light Snow,190,2014-02-04 19:15:00
12:20 PM,9.0,3.9,80,29.61,1.0,South,11.5,-,0.01,Snow,Light Snow,170,2014-02-04 19:20:00
12:39 PM,10.9,5.0,77,29.61,3.0,SSW,8.1,-,0.01,Snow,Light Snow,210,2014-02-04 19:39:00
12:53 PM,10.0,6.1,84,29.68,5.0,SE,3.5,-,0.01,Snow,Light Snow,140,2014-02-04 19:53:00
1:29 PM,10.0,6.1,84,29.61,2.0,SW,3.5,-,0.00,Snow,Light Snow,230,2014-02-04 20:29:00
1:35 PM,10.9,6.1,81,29.61,0.8,SW,5.8,-,0.00,Snow,Light Snow,230,2014-02-04 20:35:00
1:53 PM,10.9,6.1,81,29.68,0.8,NNW,10.4,-,0.01,Snow,Light Snow,330,2014-02-04 20:53:00
2:00 PM,12.0,6.1,77,29.62,1.5,NNW,10.4,-,0.00,Snow,Light Snow,330,2014-02-04 21:00:00
2:08 PM,12.9,6.1,74,29.62,3.0,NNW,8.1,-,0.00,Snow,Light Snow,330,2014-02-04 21:08:00
2:30 PM,12.0,3.9,70,29.63,4.0,NNW,15.0,23.0,0.00,Snow,Light Snow,330,2014-02-04 21:30:00
2:34 PM,12.0,5.0,73,29.63,2.5,NNW,16.1,21.9,0.00,Snow,Light Snow,330,2014-02-04 21:34:00
2:42 PM,12.0,5.0,73,29.63,1.2,NW,9.2,19.6,0.00,Snow,Light Snow,310,2014-02-04 21:42:00
2:48 PM,12.2,3.2,67,29.63,3.0,NW,10.4,19.6,0.00,Snow,Light Snow,310,2014-02-04 21:48:00
2:53 PM,12.9,1.0,59,29.68,9.0,NW,15.0,19.6,0.00,,Mostly Cloudy,310,2014-02-04 21:53:00
3:14 PM,12.0,3.9,70,29.64,1.8,Calm,Calm,-,0.00,Snow,Light Snow,0,2014-02-04 22:14:00
3:20 PM,12.0,3.9,70,29.64,3.0,Calm,Calm,-,0.00,Snow,Light Snow,0,2014-02-04 22:20:00
3:33 PM,10.0,3.0,73,29.65,1.8,NW,5.8,-,0.00,Snow,Light Snow,310,2014-02-04 22:33:00
3:46 PM,12.9,3.9,67,29.64,4.0,NE,3.5,-,0.00,Snow,Light Snow,40,2014-02-04 22:46:00
3:53 PM,14.0,3.0,62,29.69,10.0,NNE,4.6,-,0.00,,Overcast,30,2014-02-04 22:53:00
4:53 PM,8.1,1.0,73,29.78,9.0,NW,10.4,-,N/A,,Mostly Cloudy,310,2014-02-04 23:53:00
5:01 PM,9.0,3.0,77,29.67,2.5,NW,9.2,18.4,0.00,Snow,Light Snow,310,2014-02-05 00:01:00
5:10 PM,9.0,3.0,77,29.67,2.0,NNW,4.6,19.6,0.00,Snow,Light Snow,340,2014-02-05 00:10:00
5:19 PM,8.1,1.9,76,29.68,6.0,North,6.9,-,0.00,,Haze,10,2014-02-05 00:19:00
5:53 PM,8.1,1.0,73,29.81,10.0,NNE,5.8,-,0.00,,Overcast,30,2014-02-05 00:53:00
6:53 PM,7.0,-0.0,73,29.85,10.0,NNW,9.2,-,N/A,,Overcast,340,2014-02-05 01:53:00
7:15 PM,6.1,1.0,80,29.73,3.0,WNW,5.8,-,0.00,Snow,Light Snow,300,2014-02-05 02:15:00
7:44 PM,5.0,1.0,84,29.74,2.0,NNW,5.8,-,0.00,Snow,Light Snow,330,2014-02-05 02:44:00
7:53 PM,5.0,1.0,84,29.91,1.5,NW,8.1,-,0.00,Snow,Light Snow,320,2014-02-05 02:53:00
8:20 PM,5.0,1.0,84,29.75,1.0,North,6.9,-,0.01,Snow,Light Snow,360,2014-02-05 03:20:00
8:33 PM,3.9,1.0,88,29.76,2.0,North,4.6,-,0.01,Snow,Light Snow,350,2014-02-05 03:33:00
8:40 PM,3.9,1.0,88,29.77,3.0,NNW,3.5,-,0.01,Snow,Light Snow,330,2014-02-05 03:40:00
8:53 PM,3.0,-0.9,84,29.91,2.5,Calm,Calm,-,0.01,Snow,Light Snow,0,2014-02-05 03:53:00
9:02 PM,3.0,-0.9,84,29.77,3.0,NNE,3.5,-,0.00,Snow,Light Snow,30,2014-02-05 04:02:00
9:28 PM,-0.0,-4.0,83,29.78,10.0,NNE,4.6,-,0.00,,Scattered Clouds,20,2014-02-05 04:28:00
9:53 PM,-0.9,-5.1,83,29.96,7.0,North,5.8,-,0.00,,Mostly Cloudy,10,2014-02-05 04:53:00
10:53 PM,-2.0,-6.0,83,29.97,6.0,NE,6.9,-,N/A,,Overcast,40,2014-02-05 05:53:00
11:53 PM,-4.0,-9.0,79,30.01,9.0,NE,6.9,-,N/A,,Overcast,50,2014-02-05 06:53:00